Volver al catálogo

NOAA 16 DEB

ActivoSSO
NORAD 42350·DEBRIS·🇺🇸 United States

Lanzado Sep 21, 2000 desde Vandenberg Space Force Base

Loading…

Próximos Pases (próximas 24 horas)

TLE

EnvejeciendoSource: Space-Track

Época: Sep 5, 2026, 05:03 UTC

1 42350U 00055QS  26248.21078079  .00000430  00000-0  26378-3 0  9996
2 42350  98.6555 230.3524 0026234   6.8924 353.2603 14.10664357507549

Sigue NOAA 16 DEB en tiempo real con AllMySat

Download on the App Store